Regional Weather Roundup
Issued by NWS

Home | Current Version | Previous Version | Graphics & Text | Print | Product List | Glossary On
Versions: 1 2 3 4 5 6 7 8 9 10 11 12 13 14 15 16 17 18 19 20 21 22 23 24 25 26 27 28 29 30 31 32 33 34 35 36 37 38 39 40 41 42 43 44 45 46 47 48 49 50
000
ASUS43 KDMX 212301
RWRIA

WEATHER ROUNDUP FOR IOWA
NATIONAL WEATHER SERVICE DES MOINES IA
600 PM CDT SUN MAY 21 2017

NOTE: "FAIR" INDICATES FEW OR NO CLOUDS BELOW 12,000 FEET WITH NO
SIGNIFICANT WEATHER AND/OR OBSTRUCTIONS TO VISIBILITY.

* - THESE STATIONS ARE NOT NWS STATIONS...THUS NOT UNDER NWS
QUALITY CONTROL.  THEY ALSO DO NOT REPORT WEATHER SUCH
AS PRECIPITATION OR FOG.

IAZ001>003-012>014-020>022-031>034-043>046-220000-
   NORTHWEST IOWA

CITY           SKY/WX    TMP DP  RH WIND       PRES   REMARKS
CARROLL *      PTSUNNY   57  46  67 NW20G29   30.04R
CHEROKEE *     PTSUNNY   56  44  63 NW14G28   30.03R
DENISON *      MOSUNNY   59  43  55 NW18G26   30.06S
LE MARS *      MOSUNNY   59  43  55 NW17G25   30.03F
ORANGE CITY *  PTSUNNY   57  46  67 NW13G24   30.01S
SHELDON *      PTSUNNY   55  43  62 NW20G26     N/A
SIOUX CITY     SUNNY     62  45  53 NW20G28   30.03F
SPENCER        PTSUNNY   56  42  59 W23G33    29.99F
STORM LAKE *     N/A     54  43  66 NW21G32   30.02S
$$

IAZ055>058-069>071-079>083-090>094-220000-
   SOUTHWEST IOWA

CITY           SKY/WX    TMP DP  RH WIND       PRES   REMARKS
ATLANTIC *     MOSUNNY   63  45  51 NW20G28   30.04S
AUDUBON *      PTSUNNY   59  46  63 NW9G21    30.05S
CLARINDA *     MOSUNNY   66  43  42 NW15G22   30.08S
COUNCIL BLFS * SUNNY     64  41  42 NW15G23   30.05S
CRESTON *      MOSUNNY   63  45  51 NW22G30   30.06S
HARLAN  *      SUNNY     61  45  55 NW24      30.08S
LAMONI         MOSUNNY   62  45  53 NW16      30.06S
RED OAK *      PTSUNNY   66  43  42 NW15      30.05S
SHENANDOAH *   MOSUNNY   66  41  39 NW17      30.06F
$$

IAZ047>049-059>061-072>074-084-220000-
   CENTRAL IOWA

CITY           SKY/WX    TMP DP  RH WIND       PRES   REMARKS
AMES           CLOUDY    54  44  69 W16       30.03S
ANKENY *       CLOUDY    55  43  62 W14G20    30.05S
BOONE *        CLOUDY    54  43  66 W16       30.02S
DES MOINES     CLOUDY    58  43  57 NW13      30.04S
GRINNELL*      CLOUDY    52  41  66 W12       30.05S
MARSHALLTOWN   CLOUDY    51  44  77 W14       30.02R
NEWTON *       CLOUDY    54  41  62 NW14G21   30.04S
PELLA *        CLOUDY    56  42  60 NW10      30.06S
PERRY *        CLOUDY    56  46  68 NW13      30.04S
$$

IAZ004>006-015-016-023>025-035-036-220000-
   NORTH CENTRAL IOWA

CITY           SKY/WX    TMP DP  RH WIND       PRES   REMARKS
ALGONA *       CLOUDY    52  43  71 NW14G22   29.99S
CLARION *      CLOUDY    50  45  81 W17G26    30.00S
ESTHERVILLE    CLOUDY    50  42  74 NW14      29.97F
FORT DODGE *   CLOUDY    54  43  66 W10G16    30.02S
MASON CITY     CLOUDY    49  40  71 W16       29.98S
FOREST CITY *  CLOUDY    50  36  57 W16       29.97S
WEBSTER CITY * CLOUDY    52  43  71 W16G23    30.00R
IOWA FALLS *   CLOUDY    51  44  76 W17       30.02R
$$

IAZ007>011-017>019-026>030-037>042-050>054-066-220000-
   NORTHEAST IOWA

CITY           SKY/WX    TMP DP  RH WIND       PRES   REMARKS
CEDAR RAPIDS   CLOUDY    50  43  77 W17G29    30.02R
CHARLES CITY * CLOUDY    48  43  81 W16       29.97S
CLINTON *      CLOUDY    51  42  71 W15       30.02R
DECORAH *      CLOUDY    46  41  81 W10G18    29.94R
DUBUQUE        CLOUDY    49  42  77 W13       29.98S
MONTICELLO *   CLOUDY    50  41  71 W16       30.00R
OELWEIN *      CLOUDY    50  43  76 W18G25    29.98S
WATERLOO       CLOUDY    50  41  71 W14G23    29.99R
$$

IAZ064-065-067-068-078-220000-
   EAST CENTRAL IOWA

CITY           SKY/WX    TMP DP  RH WIND       PRES   REMARKS
DAVENPORT      CLOUDY    52  41  66 W24       30.03R
IOWA CITY      CLOUDY    54  40  59 W15       30.05S
MT. PLEASANT * CLOUDY    56  42  58 W12G20    30.06R
MUSCATINE *    CLOUDY    55  41  58 W18       30.05S
QUAD CITIES    CLOUDY    54  40  59 W20G25    30.03S
$$

IAZ062-063-075>077-085>089-095>099-220000-
   SOUTHEAST IOWA

CITY           SKY/WX    TMP DP  RH WIND       PRES   REMARKS
BURLINGTON     CLOUDY    57  45  64 W8        30.05S
FAIRFIELD *    CLOUDY    55  43  62 NW12G20   30.05R
FORT MADISON * CLOUDY    57  46  67 W9        30.07R
KEOKUK *       CLOUDY    59  46  63 NW8       30.06R
OSKALOOSA *    CLOUDY    55  43  64 NW16      30.06S
OTTUMWA        CLOUDY    56  42  59 W13       30.05S
WASHINGTON *   CLOUDY    55  43  62 NW21      30.06R
$$

ABBREVIATIONS USED IN REMARKS
   TC - TEMPERATURES IN CELSIUS
  WCI - WIND CHILL INDEX
   HX - HEAT INDEX
  VSB - VISIBILITY
$$





USA.gov is the U.S. government's official web portal to all federal, state and local government web resources and services.